Flag for Germany Past Weather in Fehmarn (Puttgarden), Schleswig-Holstein, Germany — Yesterday and Last 2 Weeks

Now
58 °F

Overcast.


Feels Like: 58 °F
Forecast: 54 / 63 °F
Wind: 3 mph from Southeast

Location: Westermarkelsdorf

Current Time: May 26, 2016 at 8:31:06 PM

Latest Report: May 26, 2016 at 7:00 PM


Visibility: 19 mi

Pressure: 30.03 "Hg

Humidity: 86%

Dew Point: 53 °F

Location of Fehmarn (Puttgarden)Location

Past Weather in Fehmarn (Puttgarden) — Graph

°F

Fehmarn (Puttgarden) Temperature Yesterday

Maximum temperature yesterday: 60 °F (at 7:00 PM)
Minimum temperature yesterday: 55 °F (at 6:00 AM)
Average temperature yesterday: 57 °F

High & Low Weather Summary for the Past Weeks

 TemperatureHumidityPressure
High76 °F (May 22, 3:00 PM)100% (May 23, 1:00 AM)30.04 "Hg (May 23, 1:00 AM)
Low46 °F (May 18, 6:00 AM)42% (May 13, 3:00 PM)29.59 "Hg (May 13, 7:00 PM)
Average55 °F83%29.85 "Hg
* Reported May 11 7:00 PM — May 26 7:00 PM, Fehmarn (Puttgarden), Weather by CustomWeather, © 2016

Note: Actual official high and low records may vary slightly from our data, if they occured in-between our weather recording intervals... More about our weather records

Advertising

Fehmarn (Puttgarden) Weather History for the Previous 24 Hours

Scroll right to see more
 ConditionsComfort  
Time TempWeatherWind HumidityBarometerVisibility
7:00 PM
Thu, May 26
58 °FOvercast.3 mph86%30.03 "Hg19 mi
6:00 PM58 °FOvercast.3 mph84%30.04 "Hg19 mi
4:00 PM58 °FCool.6 mph88%30.04 "Hg14 mi
3:00 PM58 °FCool.6 mph84%30.04 "Hg14 mi
1:00 PM57 °FLow clouds.8 mph88%30.03 "Hg14 mi
12:00 PM56 °FOvercast.6 mph89%30.03 "Hg14 mi
10:00 AM54 °FLow clouds.6 mph93%30.01 "Hg7 mi
9:00 AM54 °FFog.6 mph97%30.01 "Hg3 mi
7:00 AM54 °FCool.3 mph100%29.99 "Hg2 mi
6:00 AM53 °FDuststorm.2 mph100%29.98 "Hg1 mi
4:00 AM55 °FFog.3 mph100%29.97 "Hg0 mi
3:00 AM56 °FLow clouds.3 mph100%29.97 "Hg2 mi
1:00 AM56 °FPassing clouds.7 mph98%29.97 "Hg10 mi
12:00 AM57 °FPassing clouds.7 mph98%29.97 "Hg9 mi
10:00 PM
Wed, May 25
58 °FCool.7 mph98%29.97 "Hg9 mi
9:00 PM59 °FCool.7 mph95%29.96 "Hg9 mi
Weather by CustomWeather, © 2016

See weather overviewHow to use our weather pages